Location: Gwatt
(46.7204°N, 7.6223°E)
Time: 00:13:09
(UTC+00:00)

Vanguard 2 - Pass Details

Date: 28 January 2021
Orbit: 552 x 2938 km, 32.9° (Epoch: 03 March)

Event Time Altitude Azimuth Distance (km) Brightness Sun altitude
Rises 15:45:08 0° 232° (SW) 2,817 13.2 5.4°
Reaches altitude 10° 15:48:43 10° 199° (SSW) 1,819 10.4 4.9°
Maximum altitude 15:50:17 12° 175° (S) 1,692 9.8 4.7°
Drops below altitude 10° 15:51:52 10° 152° (SSE) 1,842 9.6 4.4°
Sets 15:55:34 0° 120° (ESE) 2,900 10.2 3.9°
